contact:dominique.lefevre@mio.osupytheas.fr, maurice.libes@osupytheas.fr, didier.mallarino@osupytheas.fr
Project:EMSO http://www.emso-fr.org/EMSO-France
Depth: 2436.0 m
Title:EMSO Ligure Ouest : Data MII capteur AQUADOPP
Date,Latitude,Longitude,X_East,Y_North,Z_Up,Amplitude_X,Amplitude_Y,Amplitude_Z,Batterie,SoundSpeed,Heading,Pitch,Roll,Pressure,TIS,Speed,Direction
, degrees North, degrees East, m.s-1, m.s-1,m.s-1, 1, 1, 1, Volt, m.s-1, degree, degree, degree, dbar, degree_C, m.s-1, degree
2021-11-11T00:04:03,42.805,6.029,0.046,-0.01,-0.003,101.0,101.0,100.0,13.3,1505.2,328.4,-0.7,1.8,2470.769,13.28,0.047,102.3
2021-11-11T00:07:03,42.805,6.029,0.029,-0.029,-0.009,99.0,101.0,101.0,13.4,1505.2,330.4,-0.8,1.8,2470.741,13.28,0.041,135.0
2021-11-11T00:10:03,42.805,6.029,0.03,-0.028,-0.03,100.0,101.0,100.0,13.4,1505.2,330.0,-0.8,1.8,2470.753,13.28,0.041,133.0
2021-11-11T00:13:03,42.805,6.029,0.034,-0.028,-0.005,101.0,101.0,100.0,13.4,1505.2,328.3,-0.8,1.8,2470.707,13.28,0.044,129.5
2021-11-11T00:16:03,42.805,6.029,0.037,-0.034,-0.022,101.0,101.0,100.0,13.3,1505.2,328.8,-0.8,1.8,2470.73,13.28,0.05,132.6
2021-11-11T00:19:03,42.805,6.029,0.051,-0.012,-0.002,101.0,101.0,100.0,13.3,1505.2,331.1,-0.7,1.8,2470.707,13.28,0.052,103.2
2021-11-11T00:22:03,42.805,6.029,0.044,-0.035,-0.043,101.0,101.0,100.0,13.3,1505.2,331.2,-0.7,1.9,2470.72,13.28,0.056,128.5
2021-11-11T00:25:03,42.805,6.029,0.046,-0.01,-0.012,101.0,101.0,100.0,13.4,1505.2,326.8,-0.8,1.8,2470.724,13.28,0.047,102.3
2021-11-11T00:28:03,42.805,6.029,0.048,-0.03,-0.005,101.0,100.0,101.0,13.4,1505.2,328.8,-0.7,1.8,2470.707,13.28,0.056,122.0
2021-11-11T00:31:03,42.805,6.029,0.037,-0.011,-0.007,101.0,100.0,101.0,13.4,1505.2,327.0,-0.7,1.8,2470.698,13.28,0.038,106.6
2021-11-11T00:34:03,42.805,6.029,0.037,-0.021,-0.027,101.0,100.0,100.0,13.3,1505.2,325.8,-0.8,1.8,2470.67,13.28,0.042,119.6
2021-11-11T00:37:03,42.805,6.029,0.054,-0.031,-0.015,101.0,101.0,100.0,13.4,1505.2,325.2,-0.7,1.8,2470.685,13.28,0.062,119.9
2021-11-11T00:40:03,42.805,6.029,0.031,-0.026,-0.039,101.0,101.0,100.0,13.3,1505.2,330.9,-0.7,1.8,2470.675,13.28,0.04,130.0
2021-11-11T00:43:03,42.805,6.029,0.029,-0.023,0.005,101.0,100.0,100.0,13.4,1505.2,329.0,-0.8,1.8,2470.669,13.28,0.037,128.4
2021-11-11T00:46:03,42.805,6.029,0.048,-0.028,-0.01,102.0,101.0,101.0,13.3,1505.2,329.9,-0.8,1.8,2470.643,13.28,0.055,120.3
2021-11-11T00:49:03,42.805,6.029,0.031,-0.019,-0.021,101.0,102.0,101.0,13.4,1505.2,325.4,-0.7,1.8,2470.668,13.28,0.036,121.5
2021-11-11T00:52:03,42.805,6.029,0.042,-0.034,-0.035,101.0,101.0,100.0,13.4,1505.2,326.9,-0.8,1.8,2470.671,13.28,0.054,129.0
2021-11-11T00:55:03,42.805,6.029,0.038,-0.002,0.0,101.0,101.0,101.0,13.4,1505.2,327.4,-0.7,1.8,2470.698,13.28,0.038,93.0
2021-11-11T00:58:03,42.805,6.029,0.058,-0.044,-0.019,102.0,101.0,100.0,13.3,1505.2,329.3,-0.8,1.8,2470.639,13.28,0.072,127.2
2021-11-11T01:04:03,42.805,6.029,0.064,-0.012,-0.004,102.0,102.0,102.0,13.3,1505.2,328.5,-0.8,1.8,2470.702,13.28,0.065,100.6
2021-11-11T01:07:03,42.805,6.029,0.037,-0.021,-0.012,101.0,101.0,101.0,13.4,1505.2,327.6,-0.8,1.8,2470.715,13.28,0.042,119.6
2021-11-11T01:10:03,42.805,6.029,0.047,-0.047,-0.036,101.0,101.0,100.0,13.4,1505.2,331.1,-0.7,1.9,2470.702,13.28,0.066,135.0
2021-11-11T01:13:03,42.805,6.029,0.034,-0.039,-0.014,100.0,101.0,100.0,13.4,1505.2,329.1,-0.7,1.8,2470.625,13.28,0.051,138.9
2021-11-11T01:16:03,42.805,6.029,0.038,-0.004,-0.015,101.0,101.0,101.0,13.4,1505.2,326.1,-0.8,1.8,2470.629,13.28,0.038,96.0
2021-11-11T01:19:03,42.805,6.029,0.037,-0.017,-0.005,102.0,101.0,100.0,13.4,1505.2,325.5,-0.7,1.8,2470.648,13.28,0.04,114.7
2021-11-11T01:22:03,42.805,6.029,0.048,-0.014,0.002,101.0,102.0,101.0,13.3,1505.2,326.1,-0.8,1.8,2470.612,13.28,0.05,106.3
2021-11-11T01:25:03,42.805,6.029,0.022,-0.012,-0.004,101.0,101.0,101.0,13.4,1505.2,326.5,-0.7,1.8,2470.626,13.28,0.025,118.6
2021-11-11T01:28:03,42.805,6.029,0.046,-0.012,0.018,101.0,101.0,100.0,13.4,1505.2,328.3,-0.8,1.8,2470.634,13.28,0.047,104.6
2021-11-11T01:31:03,42.805,6.029,0.021,-0.013,-0.018,102.0,101.0,100.0,13.4,1505.2,329.3,-0.8,1.9,2470.667,13.28,0.024,121.8
2021-11-11T01:34:03,42.805,6.029,0.035,-0.036,-0.036,101.0,100.0,100.0,13.4,1505.2,329.5,-0.8,1.8,2470.652,13.28,0.05,135.8
2021-11-11T01:37:03,42.805,6.029,0.054,-0.018,-0.004,101.0,101.0,101.0,13.3,1505.2,328.4,-0.7,1.8,2470.672,13.28,0.056,108.4
2021-11-11T01:40:03,42.805,6.029,0.036,-0.026,-0.021,101.0,101.0,101.0,13.4,1505.2,329.2,-0.7,1.8,2470.656,13.28,0.044,125.8
2021-11-11T01:43:03,42.805,6.029,0.033,-0.028,-0.011,101.0,101.0,101.0,13.4,1505.2,329.2,-0.8,1.8,2470.663,13.28,0.043,130.3
2021-11-11T01:46:03,42.805,6.029,0.056,-0.009,0.001,101.0,101.0,100.0,13.4,1505.2,329.4,-0.7,1.8,2470.674,13.28,0.056,99.1
2021-11-11T01:49:03,42.805,6.029,0.022,-0.013,-0.015,101.0,101.0,101.0,13.4,1505.2,328.6,-0.7,1.8,2470.685,13.28,0.025,120.6
2021-11-11T01:52:03,42.805,6.029,0.071,-0.038,0.018,101.0,101.0,100.0,13.3,1505.2,331.7,-0.8,1.8,2470.682,13.28,0.08,118.2
2021-11-11T01:55:03,42.805,6.029,0.037,-0.02,0.005,101.0,101.0,100.0,13.4,1505.2,330.1,-0.8,1.8,2470.672,13.28,0.042,118.4
2021-11-11T01:58:03,42.805,6.029,0.027,-0.015,0.014,102.0,102.0,101.0,13.4,1505.2,326.5,-0.8,1.8,2470.643,13.28,0.03,119.1
2021-11-11T02:04:03,42.805,6.029,0.068,-0.039,-0.022,102.0,102.0,100.0,13.4,1505.2,328.4,-0.7,1.8,2470.692,13.28,0.078,119.8
2021-11-11T02:07:03,42.805,6.029,0.045,-0.043,-0.001,101.0,101.0,100.0,13.4,1505.2,329.1,-0.7,1.8,2470.717,13.28,0.062,133.7
2021-11-11T02:10:03,42.805,6.029,0.038,-0.032,-0.024,103.0,101.0,100.0,13.3,1505.2,328.8,-0.8,1.8,2470.719,13.28,0.049,130.1
2021-11-11T02:13:03,42.805,6.029,0.045,-0.014,-0.012,102.0,101.0,101.0,13.4,1505.2,325.9,-0.8,1.8,2470.676,13.28,0.047,107.3
2021-11-11T02:16:03,42.805,6.029,0.037,-0.022,-0.015,101.0,101.0,101.0,13.4,1505.2,326.9,-0.7,1.9,2470.703,13.28,0.043,120.7
2021-11-11T02:19:03,42.805,6.029,0.037,-0.022,-0.02,102.0,102.0,100.0,13.4,1505.2,330.0,-0.7,1.8,2470.683,13.28,0.043,120.7
2021-11-11T02:22:03,42.805,6.029,0.035,-0.035,-0.007,101.0,101.0,101.0,13.4,1505.2,330.2,-0.7,1.8,2470.661,13.28,0.049,135.0
2021-11-11T02:25:03,42.805,6.029,0.057,-0.009,-0.009,101.0,101.0,101.0,13.4,1505.2,327.1,-0.7,1.8,2470.653,13.28,0.057,99.0
2021-11-11T02:28:03,42.805,6.029,0.053,-0.035,-0.003,101.0,102.0,100.0,13.4,1505.2,326.5,-0.7,1.8,2470.68,13.28,0.063,123.4
2021-11-11T02:31:03,42.805,6.029,0.041,-0.019,-0.026,101.0,101.0,101.0,13.3,1505.2,327.4,-0.8,1.8,2470.656,13.28,0.045,114.9
2021-11-11T02:34:03,42.805,6.029,0.008,-0.019,-0.038,101.0,101.0,100.0,13.4,1505.2,327.1,-0.8,1.8,2470.683,13.28,0.02,157.2
2021-11-11T02:37:03,42.805,6.029,0.03,-0.023,-0.031,101.0,101.0,101.0,13.4,1505.2,329.8,-0.7,1.8,2470.647,13.28,0.037,127.5
2021-11-11T02:40:03,42.805,6.029,0.046,-0.01,-0.005,100.0,101.0,100.0,13.3,1505.2,329.5,-0.8,1.8,2470.644,13.28,0.047,102.3
2021-11-11T02:43:03,42.805,6.029,0.059,-0.041,-0.02,101.0,100.0,100.0,13.4,1505.2,326.5,-0.8,1.9,2470.646,13.28,0.071,124.8
2021-11-11T02:46:03,42.805,6.029,0.027,-0.001,-0.026,101.0,102.0,100.0,13.4,1505.2,325.5,-0.8,1.8,2470.677,13.28,0.027,92.1
2021-11-11T02:49:03,42.805,6.029,0.052,-0.022,-0.005,101.0,100.0,101.0,13.4,1505.2,326.5,-0.7,1.8,2470.667,13.28,0.056,112.9
2021-11-11T02:52:03,42.805,6.029,0.038,-0.046,-0.024,101.0,102.0,101.0,13.4,1505.2,328.9,-0.7,1.8,2470.647,13.28,0.059,140.4
2021-11-11T02:55:03,42.805,6.029,0.037,-0.028,-0.002,101.0,101.0,100.0,13.3,1505.2,331.2,-0.7,1.8,2470.657,13.28,0.046,127.1
2021-11-11T02:58:03,42.805,6.029,0.058,-0.038,-0.023,102.0,101.0,101.0,13.4,1505.2,329.3,-0.7,1.9,2470.659,13.28,0.069,123.2
2021-11-11T03:04:03,42.805,6.029,0.035,-0.021,-0.024,102.0,101.0,99.0,13.4,1505.2,326.3,-0.8,1.8,2470.705,13.28,0.04,121.0
2021-11-11T03:07:03,42.805,6.029,0.052,-0.01,-0.006,101.0,101.0,100.0,13.4,1505.2,325.0,-0.8,1.8,2470.726,13.28,0.052,100.9
2021-11-11T03:10:03,42.805,6.029,0.046,-0.025,0.001,102.0,101.0,99.0,13.4,1505.2,328.5,-0.7,1.8,2470.711,13.28,0.052,118.5
2021-11-11T03:13:03,42.805,6.029,0.042,-0.046,-0.034,101.0,102.0,100.0,13.4,1505.2,331.3,-0.8,1.8,2470.734,13.28,0.062,137.6
2021-11-11T03:16:03,42.805,6.029,0.055,-0.039,-0.033,101.0,102.0,101.0,13.4,1505.2,327.5,-0.8,1.8,2470.698,13.28,0.067,125.3
2021-11-11T03:19:03,42.805,6.029,0.033,-0.016,0.0,101.0,100.0,101.0,13.4,1505.2,329.2,-0.7,1.8,2470.676,13.28,0.036,115.9
2021-11-11T03:22:03,42.805,6.029,0.033,-0.005,0.0,102.0,100.0,101.0,13.4,1505.2,325.9,-0.8,1.8,2470.642,13.28,0.033,98.6
2021-11-11T03:25:03,42.805,6.029,0.058,-0.024,0.025,102.0,101.0,100.0,13.4,1505.2,331.8,-0.8,1.8,2470.664,13.28,0.062,112.5
2021-11-11T03:28:03,42.805,6.029,0.039,-0.029,-0.009,101.0,101.0,101.0,13.4,1505.2,325.8,-0.8,1.8,2470.685,13.28,0.048,126.6
2021-11-11T03:31:03,42.805,6.029,0.039,-0.03,-0.007,101.0,101.0,101.0,13.4,1505.2,331.4,-0.7,1.8,2470.684,13.28,0.049,127.6
2021-11-11T03:34:03,42.805,6.029,0.048,-0.021,-0.012,102.0,101.0,100.0,13.4,1505.2,327.6,-0.8,1.8,2470.623,13.28,0.052,113.6
2021-11-11T03:37:03,42.805,6.029,0.043,-0.012,0.003,100.0,102.0,101.0,13.4,1505.2,329.7,-0.8,1.8,2470.68,13.28,0.044,105.6
2021-11-11T03:40:03,42.805,6.029,0.039,-0.051,-0.04,101.0,101.0,100.0,13.4,1505.2,327.9,-0.8,1.8,2470.666,13.28,0.064,142.6
2021-11-11T03:43:03,42.805,6.029,0.038,-0.038,-0.03,101.0,101.0,101.0,13.4,1505.2,331.1,-0.8,1.8,2470.667,13.28,0.053,135.0
2021-11-11T03:46:03,42.805,6.029,0.055,-0.027,0.019,101.0,102.0,100.0,13.4,1505.2,325.3,-0.8,1.8,2470.667,13.28,0.061,116.1
2021-11-11T03:49:03,42.805,6.029,0.048,-0.014,-0.015,101.0,100.0,100.0,13.4,1505.2,326.9,-0.8,1.8,2470.662,13.28,0.05,106.3
2021-11-11T03:52:03,42.805,6.029,0.064,-0.014,0.006,102.0,101.0,100.0,13.4,1505.2,326.9,-0.8,1.8,2470.647,13.28,0.065,102.3
2021-11-11T03:55:03,42.805,6.029,0.057,-0.027,-0.01,101.0,101.0,101.0,13.3,1505.2,326.8,-0.7,1.8,2470.655,13.28,0.063,115.3
2021-11-11T03:58:03,42.805,6.029,0.043,-0.035,-0.016,101.0,101.0,101.0,13.4,1505.2,329.6,-0.7,1.8,2470.657,13.28,0.055,129.1
2021-11-11T04:04:03,42.805,6.029,0.03,-0.048,-0.022,101.0,102.0,100.0,13.4,1505.2,331.9,-0.7,1.8,2470.685,13.28,0.056,148.0
2021-11-11T04:07:03,42.805,6.029,0.064,-0.03,-0.024,100.0,101.0,101.0,13.4,1505.2,327.5,-0.8,1.8,2470.684,13.28,0.07,115.1
2021-11-11T04:10:03,42.805,6.029,0.065,-0.04,-0.025,101.0,101.0,100.0,13.4,1505.2,325.2,-0.7,1.8,2470.701,13.28,0.076,121.6
2021-11-11T04:13:03,42.805,6.029,0.044,-0.03,-0.002,101.0,101.0,100.0,13.3,1505.2,331.9,-0.8,1.8,2470.683,13.28,0.053,124.3
2021-11-11T04:16:03,42.805,6.029,0.044,-0.027,-0.006,100.0,102.0,100.0,13.4,1505.2,330.1,-0.7,1.8,2470.691,13.28,0.051,121.5
2021-11-11T04:19:03,42.805,6.029,0.025,-0.012,-0.005,101.0,101.0,101.0,13.3,1505.2,330.8,-0.8,1.8,2470.678,13.28,0.027,115.6
2021-11-11T04:22:03,42.805,6.029,0.047,-0.036,-0.045,101.0,100.0,100.0,13.3,1505.2,328.4,-0.8,1.8,2470.652,13.28,0.059,127.5
2021-11-11T04:25:03,42.805,6.029,0.046,-0.019,0.015,101.0,101.0,100.0,13.3,1505.2,327.6,-0.8,1.8,2470.661,13.28,0.049,112.4
2021-11-11T04:28:03,42.805,6.029,0.05,-0.027,-0.009,101.0,100.0,100.0,13.4,1505.2,326.0,-0.7,1.8,2470.667,13.28,0.056,118.4
2021-11-11T04:31:03,42.805,6.029,0.034,-0.032,-0.047,101.0,101.0,101.0,13.4,1505.2,325.6,-0.7,1.8,2470.643,13.28,0.046,133.3
2021-11-11T04:34:03,42.805,6.029,0.054,-0.038,-0.02,102.0,102.0,100.0,13.4,1505.2,329.3,-0.8,1.8,2470.707,13.28,0.066,125.1
2021-11-11T04:37:03,42.805,6.029,0.05,-0.021,-0.047,103.0,101.0,101.0,13.4,1505.2,325.8,-0.8,1.9,2470.629,13.28,0.054,112.8
2021-11-11T04:40:03,42.805,6.029,0.033,-0.026,-0.01,102.0,101.0,100.0,13.4,1505.2,324.6,-0.8,1.8,2470.669,13.28,0.042,128.2
2021-11-11T04:43:03,42.805,6.029,0.049,-0.02,0.015,102.0,101.0,100.0,13.3,1505.2,329.1,-0.8,1.9,2470.638,13.28,0.052,112.2
2021-11-11T04:46:03,42.805,6.029,0.033,-0.025,-0.034,100.0,102.0,101.0,13.4,1505.2,330.6,-0.8,1.8,2470.627,13.28,0.041,127.1
2021-11-11T04:49:03,42.805,6.029,0.058,-0.031,0.009,101.0,101.0,101.0,13.3,1505.2,329.0,-0.8,1.8,2470.639,13.28,0.065,118.1
2021-11-11T04:52:03,42.805,6.029,0.028,-0.009,0.0,101.0,101.0,101.0,13.3,1505.2,325.5,-0.7,1.9,2470.669,13.28,0.029,107.8
2021-11-11T04:55:03,42.805,6.029,0.04,-0.035,0.003,100.0,101.0,101.0,13.3,1505.2,328.8,-0.7,1.8,2470.652,13.28,0.053,131.2
2021-11-11T04:58:03,42.805,6.029,0.043,-0.025,-0.019,101.0,101.0,101.0,13.4,1505.2,328.0,-0.8,1.8,2470.607,13.28,0.049,120.2
2021-11-11T05:04:03,42.805,6.029,0.042,-0.038,-0.004,100.0,101.0,101.0,13.4,1505.2,328.4,-0.8,1.8,2470.673,13.28,0.056,132.1
2021-11-11T05:07:03,42.805,6.029,0.037,-0.046,-0.013,102.0,101.0,100.0,13.4,1505.2,329.9,-0.8,1.8,2470.714,13.28,0.059,141.2
2021-11-11T05:10:03,42.805,6.029,0.044,-0.01,0.006,101.0,101.0,101.0,13.3,1505.2,328.8,-0.8,1.8,2470.653,13.28,0.045,102.8
2021-11-11T05:13:03,42.805,6.029,0.036,-0.024,-0.042,102.0,101.0,100.0,13.4,1505.2,331.6,-0.7,1.8,2470.705,13.28,0.043,123.7
2021-11-11T05:16:03,42.805,6.029,0.039,-0.035,-0.007,102.0,101.0,100.0,13.3,1505.2,325.5,-0.7,1.8,2470.658,13.28,0.052,131.9
2021-11-11T05:19:03,42.805,6.029,0.023,-0.032,-0.025,102.0,100.0,101.0,13.4,1505.2,331.1,-0.8,1.8,2470.64,13.28,0.039,144.3
2021-11-11T05:22:03,42.805,6.029,0.041,-0.026,-0.009,101.0,102.0,101.0,13.3,1505.2,330.2,-0.7,1.8,2470.68,13.28,0.048,122.4
2021-11-11T05:25:03,42.805,6.029,0.051,-0.034,-0.021,102.0,102.0,100.0,13.3,1505.2,326.7,-0.8,1.8,2470.672,13.28,0.061,123.7
2021-11-11T05:28:03,42.805,6.029,0.03,-0.033,-0.007,103.0,100.0,101.0,13.4,1505.2,328.4,-0.8,1.8,2470.63,13.28,0.044,137.7
2021-11-11T05:31:03,42.805,6.029,0.07,-0.043,0.009,102.0,102.0,100.0,13.4,1505.2,326.7,-0.7,1.8,2470.66,13.28,0.082,121.6
2021-11-11T05:34:03,42.805,6.029,0.07,-0.037,0.02,102.0,100.0,101.0,13.4,1505.2,328.4,-0.8,1.8,2470.624,13.28,0.079,117.9
2021-11-11T05:37:03,42.805,6.029,0.041,-0.037,-0.015,101.0,100.0,102.0,13.4,1505.2,328.5,-0.8,1.8,2470.646,13.28,0.055,132.1
2021-11-11T05:40:03,42.805,6.029,0.055,-0.024,0.02,102.0,101.0,102.0,13.3,1505.2,329.6,-0.7,1.8,2470.657,13.28,0.06,113.6
2021-11-11T05:43:03,42.805,6.029,0.042,-0.054,-0.016,101.0,101.0,101.0,13.4,1505.2,327.4,-0.8,1.8,2470.673,13.28,0.068,142.1
2021-11-11T05:46:03,42.805,6.029,0.026,-0.024,-0.028,101.0,101.0,101.0,13.3,1505.2,330.1,-0.7,1.8,2470.607,13.28,0.035,132.7
2021-11-11T05:49:03,42.805,6.029,0.061,-0.023,-0.015,101.0,101.0,101.0,13.4,1505.2,326.3,-0.7,1.8,2470.606,13.28,0.065,110.7
2021-11-11T05:52:03,42.805,6.029,0.036,-0.019,0.019,102.0,101.0,101.0,13.3,1505.2,324.9,-0.7,1.8,2470.639,13.28,0.04,117.8
2021-11-11T05:55:03,42.805,6.029,0.04,-0.041,-0.027,102.0,101.0,100.0,13.3,1505.2,331.3,-0.7,1.9,2470.641,13.28,0.057,135.7
2021-11-11T05:58:03,42.805,6.029,0.052,-0.043,-0.022,101.0,102.0,100.0,13.4,1505.2,329.8,-0.8,1.8,2470.651,13.28,0.067,129.6
2021-11-11T06:04:03,42.805,6.029,0.04,-0.023,-0.011,101.0,102.0,101.0,13.4,1505.2,325.9,-0.7,1.8,2470.688,13.28,0.046,119.9
2021-11-11T06:07:03,42.805,6.029,0.057,-0.01,0.015,101.0,101.0,100.0,13.4,1505.2,331.8,-0.8,1.9,2470.672,13.28,0.057,99.9
2021-11-11T06:10:03,42.805,6.029,0.043,-0.042,-0.009,100.0,102.0,101.0,13.4,1505.2,327.4,-0.8,1.9,2470.691,13.28,0.06,134.3
2021-11-11T06:13:03,42.805,6.029,0.071,-0.018,-0.005,102.0,100.0,101.0,13.3,1505.2,325.5,-0.8,1.8,2470.657,13.28,0.073,104.2
2021-11-11T06:16:03,42.805,6.029,0.026,-0.04,0.0,100.0,101.0,101.0,13.3,1505.2,328.6,-0.7,1.8,2470.661,13.28,0.047,147.0
2021-11-11T06:19:03,42.805,6.029,0.022,-0.027,0.013,101.0,101.0,100.0,13.4,1505.2,328.6,-0.8,1.8,2470.653,13.28,0.034,140.8
2021-11-11T06:22:03,42.805,6.029,0.022,-0.017,0.018,103.0,100.0,100.0,13.4,1505.2,330.9,-0.8,1.8,2470.617,13.28,0.027,127.7
2021-11-11T06:25:03,42.805,6.029,0.061,-0.022,-0.009,101.0,101.0,102.0,13.3,1505.2,327.6,-0.8,1.8,2470.655,13.28,0.064,109.8
2021-11-11T06:28:03,42.805,6.029,0.044,-0.051,-0.022,103.0,103.0,100.0,13.3,1505.2,328.9,-0.7,1.8,2470.647,13.28,0.067,139.2
2021-11-11T06:31:03,42.805,6.029,0.058,-0.036,-0.014,101.0,100.0,101.0,13.3,1505.2,327.6,-0.8,1.9,2470.615,13.28,0.068,121.8
2021-11-11T06:34:03,42.805,6.029,0.041,-0.032,0.007,101.0,102.0,101.0,13.4,1505.2,327.1,-0.8,1.8,2470.649,13.28,0.052,128.0
2021-11-11T06:37:03,42.805,6.029,-0.004,-0.025,-0.013,103.0,101.0,101.0,13.3,1505.2,328.4,-0.8,1.8,2470.638,13.28,0.025,189.1
2021-11-11T06:40:03,42.805,6.029,0.034,-0.033,-0.029,102.0,99.0,101.0,13.3,1505.2,326.7,-0.8,1.8,2470.604,13.28,0.047,134.1
2021-11-11T06:43:03,42.805,6.029,0.04,-0.032,-0.046,102.0,101.0,101.0,13.3,1505.2,327.6,-0.7,1.8,2470.623,13.28,0.051,128.7
2021-11-11T06:46:03,42.805,6.029,0.054,-0.031,-0.026,102.0,101.0,100.0,13.4,1505.2,330.0,-0.8,1.8,2470.626,13.28,0.062,119.9
2021-11-11T06:49:03,42.805,6.029,0.043,-0.045,-0.047,103.0,99.0,100.0,13.4,1505.2,329.7,-0.8,1.8,2470.623,13.28,0.062,136.3
2021-11-11T06:52:03,42.805,6.029,0.046,-0.038,-0.038,101.0,102.0,100.0,13.4,1505.2,329.7,-0.8,1.8,2470.613,13.28,0.059,129.6
2021-11-11T06:55:03,42.805,6.029,0.06,-0.039,-0.029,101.0,102.0,100.0,13.3,1505.2,326.0,-0.8,1.9,2470.666,13.28,0.071,123.0
2021-11-11T06:58:03,42.805,6.029,0.056,-0.041,-0.019,101.0,102.0,101.0,13.4,1505.2,328.8,-0.8,1.8,2470.67,13.28,0.069,126.2
2021-11-11T07:04:03,42.805,6.029,0.051,-0.024,-0.03,101.0,101.0,101.0,13.3,1505.2,327.7,-0.8,1.8,2470.651,13.28,0.056,115.2
2021-11-11T07:07:03,42.805,6.029,0.071,-0.026,-0.009,102.0,101.0,101.0,13.4,1505.2,325.8,-0.8,1.8,2470.705,13.28,0.075,110.1
2021-11-11T07:10:03,42.805,6.029,0.04,-0.042,-0.025,101.0,101.0,101.0,13.4,1505.2,331.5,-0.8,1.8,2470.692,13.28,0.057,136.4
2021-11-11T07:13:03,42.805,6.029,0.038,-0.032,-0.041,101.0,101.0,101.0,13.3,1505.2,328.1,-0.8,1.8,2470.627,13.28,0.049,130.1
2021-11-11T07:16:03,42.805,6.029,0.04,-0.015,0.025,101.0,101.0,101.0,13.4,1505.2,332.1,-0.8,1.8,2470.662,13.28,0.042,110.6
2021-11-11T07:19:03,42.805,6.029,0.053,-0.047,-0.018,102.0,101.0,100.0,13.4,1505.2,325.4,-0.8,1.8,2470.658,13.28,0.07,131.6
2021-11-11T07:22:03,42.805,6.029,0.011,-0.041,-0.012,102.0,101.0,101.0,13.3,1505.2,329.4,-0.8,1.8,2470.666,13.28,0.042,165.0
2021-11-11T07:25:03,42.805,6.029,0.037,-0.04,-0.019,101.0,101.0,101.0,13.3,1505.2,329.6,-0.7,1.8,2470.624,13.28,0.054,137.2
2021-11-11T07:28:03,42.805,6.029,0.046,-0.043,-0.002,103.0,101.0,100.0,13.4,1505.2,328.9,-0.7,1.8,2470.682,13.28,0.062,133.1
2021-11-11T07:31:03,42.805,6.029,0.044,-0.017,-0.014,101.0,101.0,101.0,13.3,1505.2,325.5,-0.7,1.8,2470.685,13.28,0.047,111.1
2021-11-11T07:34:03,42.805,6.029,0.033,-0.006,-0.011,101.0,102.0,101.0,13.3,1505.2,325.4,-0.8,1.8,2470.65,13.28,0.033,100.3
2021-11-11T07:37:03,42.805,6.029,0.029,-0.018,-0.017,102.0,102.0,100.0,13.4,1505.2,327.2,-0.8,1.8,2470.685,13.28,0.034,121.8
2021-11-11T07:40:03,42.805,6.029,0.04,-0.052,-0.042,102.0,101.0,101.0,13.3,1505.2,327.5,-0.8,1.8,2470.635,13.28,0.065,142.4
2021-11-11T07:43:03,42.805,6.029,0.034,-0.036,-0.015,101.0,101.0,102.0,13.4,1505.2,324.7,-0.7,1.8,2470.637,13.28,0.049,136.6
2021-11-11T07:46:03,42.805,6.029,0.045,-0.037,0.005,102.0,102.0,100.0,13.3,1505.2,328.0,-0.7,1.8,2470.673,13.28,0.058,129.4
2021-11-11T07:49:03,42.805,6.029,0.071,-0.029,-0.005,101.0,101.0,102.0,13.4,1505.2,328.2,-0.7,1.8,2470.68,13.28,0.076,112.2
2021-11-11T07:52:03,42.805,6.029,0.019,-0.03,-0.021,102.0,101.0,101.0,13.3,1505.2,327.4,-0.7,1.8,2470.645,13.28,0.035,147.7
2021-11-11T07:55:03,42.805,6.029,0.014,-0.033,-0.015,102.0,102.0,101.0,13.4,1505.2,329.6,-0.7,1.8,2470.633,13.28,0.035,157.0
2021-11-11T07:58:03,42.805,6.029,0.05,-0.048,-0.026,101.0,102.0,101.0,13.3,1505.2,325.4,-0.8,1.8,2470.664,13.28,0.069,133.8
2021-11-11T08:04:03,42.805,6.029,0.033,-0.04,-0.015,100.0,102.0,101.0,13.3,1505.2,329.0,-0.8,1.8,2470.717,13.28,0.051,140.5
2021-11-11T08:07:03,42.805,6.029,0.04,-0.028,0.01,103.0,101.0,100.0,13.4,1505.2,330.0,-0.8,1.8,2470.728,13.28,0.048,125.0
2021-11-11T08:10:03,42.805,6.029,0.042,-0.058,-0.05,103.0,99.0,101.0,13.4,1505.2,329.5,-0.7,1.8,2470.678,13.28,0.071,144.1
2021-11-11T08:13:03,42.805,6.029,0.059,-0.046,-0.022,102.0,102.0,100.0,13.4,1505.2,327.2,-0.8,1.8,2470.693,13.28,0.074,127.9
2021-11-11T08:16:03,42.805,6.029,0.029,-0.05,-0.062,101.0,100.0,102.0,13.4,1505.2,326.2,-0.7,1.8,2470.688,13.28,0.057,149.9
2021-11-11T08:19:03,42.805,6.029,0.033,-0.043,-0.05,102.0,100.0,100.0,13.4,1505.2,330.0,-0.7,1.8,2470.689,13.28,0.054,142.5
2021-11-11T08:22:03,42.805,6.029,0.043,-0.03,-0.04,102.0,101.0,101.0,13.4,1505.2,328.5,-0.8,1.9,2470.707,13.28,0.052,124.9
2021-11-11T08:25:03,42.805,6.029,0.033,-0.03,-0.031,102.0,103.0,100.0,13.3,1505.2,331.0,-0.8,1.8,2470.657,13.28,0.044,132.3
2021-11-11T08:28:03,42.805,6.029,0.024,-0.039,-0.014,101.0,101.0,102.0,13.3,1505.2,329.7,-0.8,1.8,2470.702,13.28,0.045,148.4
2021-11-11T08:31:03,42.805,6.029,0.038,-0.033,-0.01,102.0,102.0,101.0,13.4,1505.2,328.2,-0.7,1.8,2470.72,13.28,0.05,131.0
2021-11-11T08:34:03,42.805,6.029,0.037,-0.03,0.005,102.0,101.0,102.0,13.4,1505.2,327.0,-0.8,1.8,2470.687,13.28,0.047,129.0
2021-11-11T08:37:03,42.805,6.029,0.049,-0.039,-0.047,101.0,102.0,100.0,13.4,1505.2,331.2,-0.8,1.8,2470.676,13.28,0.062,128.5
2021-11-11T08:40:03,42.805,6.029,0.018,-0.019,-0.006,102.0,100.0,101.0,13.4,1505.2,330.8,-0.8,1.8,2470.686,13.28,0.026,136.5
2021-11-11T08:43:03,42.805,6.029,0.008,-0.028,-0.004,103.0,101.0,102.0,13.4,1505.2,330.8,-0.7,1.8,2470.689,13.28,0.029,164.1
2021-11-11T08:46:03,42.805,6.029,0.011,-0.027,-0.018,102.0,100.0,102.0,13.4,1505.2,328.9,-0.7,1.9,2470.674,13.28,0.029,157.8
2021-11-11T08:49:03,42.805,6.029,0.02,-0.037,-0.025,103.0,102.0,100.0,13.4,1505.2,325.9,-0.8,1.8,2470.714,13.28,0.042,151.6
2021-11-11T08:52:03,42.805,6.029,0.029,-0.037,-0.041,100.0,102.0,102.0,13.3,1505.2,331.7,-0.7,1.8,2470.7,13.28,0.047,141.9
2021-11-11T08:55:03,42.805,6.029,0.029,-0.02,-0.025,102.0,101.0,100.0,13.4,1505.2,326.7,-0.7,1.8,2470.71,13.28,0.035,124.6
2021-11-11T08:58:03,42.805,6.029,0.024,-0.04,-0.049,101.0,102.0,100.0,13.4,1505.2,328.7,-0.8,1.8,2470.72,13.28,0.046,149.0
2021-11-11T09:04:03,42.805,6.029,0.074,-0.041,-0.016,101.0,101.0,101.0,13.4,1505.2,327.3,-0.8,1.8,2470.726,13.28,0.084,119.0
2021-11-11T09:07:03,42.805,6.029,0.043,-0.029,-0.006,102.0,101.0,101.0,13.4,1505.2,328.8,-0.8,1.8,2470.746,13.28,0.051,124.0
2021-11-11T09:10:03,42.805,6.029,-0.002,-0.024,-0.052,102.0,101.0,101.0,13.4,1505.2,331.2,-0.8,1.8,2470.741,13.28,0.024,184.8
2021-11-11T09:13:03,42.805,6.029,0.059,-0.044,-0.011,103.0,101.0,100.0,13.4,1505.2,326.3,-0.8,1.8,2470.724,13.28,0.073,126.7
2021-11-11T09:16:03,42.805,6.029,0.036,-0.029,-0.006,102.0,102.0,101.0,13.4,1505.2,328.2,-0.7,1.8,2470.712,13.28,0.046,128.9
2021-11-11T09:19:03,42.805,6.029,0.051,-0.017,-0.008,102.0,101.0,101.0,13.4,1505.2,329.2,-0.8,1.8,2470.715,13.28,0.053,108.4
2021-11-11T09:22:03,42.805,6.029,0.043,-0.015,0.0,101.0,103.0,100.0,13.3,1505.2,327.0,-0.7,1.8,2470.738,13.28,0.045,109.2
2021-11-11T09:25:03,42.805,6.029,0.035,-0.014,0.004,102.0,102.0,100.0,13.4,1505.2,328.1,-0.7,1.8,2470.74,13.28,0.037,111.8
2021-11-11T09:28:03,42.805,6.029,0.024,-0.026,-0.049,101.0,101.0,101.0,13.4,1505.2,332.0,-0.7,1.8,2470.703,13.28,0.035,137.3
2021-11-11T09:31:03,42.805,6.029,0.037,-0.023,-0.021,102.0,101.0,101.0,13.4,1505.2,328.5,-0.8,1.8,2470.734,13.28,0.043,121.9
2021-11-11T09:34:03,42.805,6.029,0.023,-0.025,-0.022,101.0,102.0,100.0,13.4,1505.2,329.5,-0.8,1.8,2470.717,13.28,0.033,137.4
2021-11-11T09:37:03,42.805,6.029,0.034,-0.034,-0.05,102.0,102.0,101.0,13.3,1505.2,324.9,-0.7,1.8,2470.738,13.28,0.048,135.0
2021-11-11T09:40:03,42.805,6.029,0.045,-0.028,0.019,101.0,102.0,100.0,13.4,1505.2,325.4,-0.7,1.8,2470.731,13.28,0.053,121.9
2021-11-11T09:43:03,42.805,6.029,0.048,-0.031,0.0,101.0,100.0,100.0,13.3,1505.2,325.7,-0.8,1.8,2470.75,13.28,0.057,122.9
2021-11-11T09:46:03,42.805,6.029,0.024,-0.003,0.004,102.0,102.0,101.0,13.4,1505.2,325.2,-0.7,1.8,2470.751,13.28,0.024,97.1
2021-11-11T09:49:03,42.805,6.029,0.031,-0.017,0.017,100.0,103.0,101.0,13.3,1505.2,325.9,-0.8,1.8,2470.748,13.28,0.035,118.7
2021-11-11T09:52:03,42.805,6.029,0.05,-0.025,-0.013,101.0,101.0,102.0,13.3,1505.2,328.4,-0.8,1.8,2470.729,13.28,0.055,116.6
2021-11-11T09:55:03,42.805,6.029,0.042,-0.033,-0.028,101.0,101.0,101.0,13.4,1505.2,325.2,-0.7,1.8,2470.754,13.28,0.053,128.2